Flag for Reunion (French) Weather past 2 weeks in Saint-Pierre, Reunion (French)

Now
77 °F

Warm.


Feels Like: 79 °F
Forecast: 66 / 76 °F
Wind: 18 mph from Southeast

Location: Saint Airport-Pierre

Current Time: Aug 21, 2014 at 11:21:44 AM

Latest Report: Aug 21, 2014 at 10:30 AM


Visibility: N/A

Pressure: 30.15 "Hg

Humidity: 57%

Dew point: 61 °F

Location of Saint-PierreLocation

Historic Weather in Saint-Pierre — Graph

°F

Saint-Pierre temperature yesterday

Maximum temperature yesterday: 79 °F (at 1:00 PM)
Minimum temperature yesterday: 64 °F (at 7:00 AM)
Average temperature yesterday: 71 °F

Past Weeks' High & Low Weather Summary

 TemperatureHumidityPressure
High79 °F (Aug 6, 12:30 PM)88% (Aug 8, 7:00 PM)30.30 "Hg (Aug 8, 7:00 PM)
Low63 °F (Aug 10, 12:00 AM)38% (Aug 10, 9:00 AM)30.09 "Hg (Aug 10, 3:00 PM)
Average71 °F63%30.19 "Hg
* Reported Aug 6 10:00 AM — Aug 21 10:00 AM, Saint-Pierre, Weather by CustomWeather, © 2014

Note: Actual official high and low records may vary slightly from our data, if they occured in-between our weather recording intervals... More about our weather records

Advertising

Saint-Pierre weather history for previous 24 hours

 ConditionsComfort  
Time TempWeatherWind HumidityBarometerVisibility
10:00 AM
Aug 21
75 °FMild.16 mph57%30.15 "HgN/A
9:30 AM75 °FMild.10 mph50%30.15 "HgN/A
9:00 AM73 °FMild.7 mph53%30.15 "HgN/A
8:30 AM72 °FMild.5 mph53%30.18 "HgN/A
8:00 AM70 °FMild.8 mph57%30.15 "HgN/A
7:30 AM68 °FMild.7 mph53%30.15 "HgN/A
7:00 AM64 °FMild.7 mph60%30.15 "HgN/A
6:30 AM64 °FMild.7 mph60%30.15 "HgN/A
6:00 AM64 °FMild.7 mph60%30.12 "HgN/A
5:30 AM64 °FMild.7 mph60%30.12 "HgN/A
5:00 AM64 °FMild.5 mph64%30.12 "HgN/A
4:30 AM64 °FMild.7 mph64%30.12 "HgN/A
4:00 AM64 °FMild.7 mph68%30.12 "HgN/A
3:30 AM64 °FMild.7 mph64%30.12 "HgN/A
3:00 AM66 °FMild.8 mph60%30.12 "HgN/A
2:30 AM66 °FMild.7 mph60%30.15 "HgN/A
2:00 AM64 °FPassing clouds.5 mph64%30.15 "HgN/A
1:30 AM64 °FMild.7 mph64%30.15 "HgN/A
1:00 AM64 °FMild.5 mph64%30.18 "HgN/A
12:30 AM64 °FPassing clouds.5 mph64%30.18 "HgN/A
12:00 AM66 °FMild.7 mph60%30.18 "HgN/A
11:30 PM
Aug 20
64 °FMild.6 mph68%30.18 "HgN/A
11:00 PM66 °FMild.6 mph73%30.18 "HgN/A
10:30 PM66 °FMild.7 mph68%30.18 "HgN/A
10:00 PM66 °FMild.7 mph64%30.18 "HgN/A
9:30 PM66 °FMild.5 mph60%30.18 "HgN/A
9:00 PM66 °FMild.7 mph68%30.18 "HgN/A
8:30 PM68 °FMild.3 mph73%30.18 "HgN/A
8:00 PM70 °FMild.6 mph73%30.18 "HgN/A
7:30 PM70 °FMild.6 mph73%30.15 "HgN/A
7:00 PM70 °FMild.6 mph73%30.15 "HgN/A
6:30 PM72 °FMild.5 mph69%30.15 "HgN/A
6:00 PM73 °FMild.5 mph65%30.15 "HgN/A
5:30 PM75 °FMild.3 mph61%30.15 "HgN/A
5:00 PM77 °FPassing clouds.5 mph54%30.15 "HgN/A
4:30 PM77 °FPartly sunny.5 mph57%30.15 "HgN/A
4:00 PM77 °FWarm.6 mph57%30.15 "HgN/A
3:30 PM77 °FWarm.6 mph54%30.15 "HgN/A
3:00 PM77 °FWarm.6 mph54%30.15 "HgN/A
2:30 PM77 °FWarm.5 mph57%30.15 "HgN/A
2:00 PM77 °FWarm.6 mph57%30.18 "HgN/A
1:30 PM77 °FPassing clouds.7 mph54%30.18 "HgN/A
1:00 PM79 °FPassing clouds.7 mph58%30.21 "HgN/A
12:30 PM77 °FPassing clouds.7 mph57%30.21 "HgN/A
12:00 PM77 °FPassing clouds.6 mph61%30.24 "HgN/A
11:30 AM77 °FPassing clouds.7 mph61%30.24 "HgN/A
11:00 AM75 °FMild.8 mph61%30.24 "HgN/A
Weather by CustomWeather, © 2014

See weather overviewHow to use our weather pages